Location: Aboncourt
(47.7710°N, 5.9826°E)
Time: 03:25:38
(UTC+00:00)

Cosmos 923 Rocket - Pass Details

Date: 05 July 2020
Orbit: 757 x 786 km, 74.0° (Epoch: 03 August)

Event Time Altitude Azimuth Distance (km) Brightness Sun altitude
Exits shadow 21:52:19 22° 179° (S) 1,648 5.2 -15.5°
Maximum altitude 21:55:39 58° 107° (ESE) 895 4.1 -15.7°
Drops below altitude 10° 22:00:51 10° 29° (NNE) 2,334 7.0 -16.1°
Sets 22:03:17 0° 26° (NNE) 3,270 7.9 -16.2°
